www.pogodaiklimat.ru

Погода и климат >> Архив погоды >> Буркина-Фасо >> Гауа


ПОГОДА в Гауа

  • Прогноз погоды в Гауа
  • Монитор погоды в Гауа

АРХИВ ПОГОДЫ в Гауа

Время (UTC), дата Ветер
(напр.,м/с)
 
Видим.   Явления Облачность Т
(С)
Тd
(С)
f
(%)
Тe
(С)
Тes
(С)
Комфортность P
(гПа)
Po
(гПа)
Тmin
(С)
Tmax
(С)
R
(мм)
R24
(мм)
S
(см)
12 11.06 Ю 3 8000 м гроза, ливневой дождь 10/5 600 м
[Cb cap Ac As]
+25.8 +24.1 90 +36 +38 очень
душно
1013.4 980.7 9
15 11.06 Ю 2 15 км в посл. час гроза {дождь} 9/5 600 м
[Cb cap Ac trans Ci sp]
+29.0 +24.1 75 +40 +44 очень
душно
1010.7 978.1
18 11.06 ЮЗ 1 15 км {гроза, дождь} 9/1 600 м
[Cu Sc Ci sp]
+29.0 +23.3 71 +39 +39 очень
душно
1010.1 977.6 +29.6 26
21 11.06 ЮЗ 2 10 км 8/0
[Ci sp]
+26.8 +23.5 82 +36 +36 очень
душно
1011.6 979.0
00 12.06 ЮЗ 1 10 км 6/0
[Ci sp]
+25.6 +23.3 87 +34 +34 очень
душно
1012.0 979.3
03 12.06 Ю 2 10 км 8/0
[Ci sp]
+24.5 +23.1 92 +33 +33 очень
душно
1011.0 978.4
06 12.06 ЮЗ 1 15 км 9/1 600 м
[Sc Ci sp]
+24.0 +22.5 91 +31 +31 очень
душно
1012.8 980.2 +24.0 26
09 12.06 ЮЗ 3 15 км 9/4 600 м
[Cu Sc Ci sp]
+27.6 +23.2 77 +37 +41 очень
душно
1013.9 981.3
12 12.06 ЮЗ 3 15 км 9/6 600 м
[Cu Sc Ci sp]
+30.7 +21.6 58 +39 +45 очень
душно
1013.1 980.6
15 12.06 Ю 2 15 км 9/4 600 м
[Cu Sc Ci sp]
+32.5 +22.7 56 +42 +48 опасность
перегрева
1011.0 978.6
18 12.06 ЮЗ 3 15 км 9/1 600 м
[Cu Sc Ci sp]
+31.9 +21.5 54 +40 +40 очень
душно
1010.1 977.6 +32.7
21 12.06 Ю 1 15 км 9/0
[Ci sp]
+28.5 +23.1 73 +38 +38 очень
душно
1012.1 979.6
00 13.06 Ю 1 10 км 9/0
[Ci sp]
+26.5 +23.6 84 +36 +36 очень
душно
1012.9 980.5
03 13.06 ЮЗ 1 10 км 9/0
[Ci sp]
+25.7 +23.3 87 +35 +35 очень
душно
1012.7 980.3
06 13.06 ЮЗ 2 15 км 9/0
[Ac As Ci sp]
+25.3 +23.1 88 +34 +34 очень
душно
1013.1 980.6 +24.8
09 13.06 ЮЗ 3 15 км 9/1 600 м
[Sc Ac trans Ci sp]
+27.8 +23.1 76 +37 +42 очень
душно
1014.7 982.2
12 13.06 СЗ 2 15 км гроза без осадков 9/6 600 м
[Cb cap Ac trans Ci sp]
+30.6 +23.4 65 +41 +46 опасность
перегрева
1013.9 981.4
15 13.06 С 1 15 км в посл. час гроза {дождь} 9/1 600 м
[Sc Ac As]
+25.2 +23.5 90 +34 +39 очень
душно
1012.3 979.6
18 13.06 СВ 1 15 км {гроза, дождь} 9/0
[Ac As Ci sp]
+28.6 +22.2 68 +37 +37 очень
душно
1011.3 978.7 +30.6 6
21 13.06 штиль 0 10 км зарница 9/1 1200 м
[Cb cap Ac As Ci sp]
+27.0 +24.9 88 +39 +39 очень
душно
1013.2 980.6
00 14.06 С 1 10 км 9/0
[Ac trans Ci sp]
+25.6 +24.2 92 +35 +35 очень
душно
1013.1 980.6
03 14.06 З 1 10 км зарница 9/1 1200 м
[Cb cap Ac As Ci sp]
+25.0 +24.0 94 +34 +34 очень
душно
1012.9 980.1
06 14.06 СЗ 1 15 км 9/0
[Ac As Ci sp]
+25.0 +23.6 92 +34 +34 очень
душно
1013.6 980.9 +24.5 6
09 14.06 З 1 15 км 9/1 600 м
[Cu Sc Ac trans Ci sp]
+28.3 +24.4 79 +40 +46 очень
душно
1013.4 980.8
12 14.06 З 1 15 км 9/1 600 м
[Sc Ac trans Ci sp]
+32.1 +22.7 58 +42 +54 опасность
перегрева
1012.3 979.9
15 14.06 СВ 1 15 км 9/1 600 м
[Cu Sc Ci sp]
+34.5 +22.9 51 +44 +55 опасность
перегрева
1009.6 977.3
18 14.06 В 1 15 км 9/3 600 м
[Cb cap Ac cuf Ci sp]
+34.0 +22.6 51 +43 +43 опасность
перегрева
1009.2 977.0 +34.2
21 14.06 ЮВ 4 10 км гроза без осадков 9/5 600 м
[Cb cap Ac As]
+24.0 +21.5 86 +31 +31 очень
душно
1014.6 981.8
00 15.06 Ю 1 10 км {гроза, дождь} 9/0
[Cs]
+25.0 +23.6 92 +34 +34 очень
душно
1012.7 980.3 11
03 15.06 ЮЗ 1 10 км 9/0
[Ac trans Ci sp]
+24.8 +23.2 91 +33 +33 очень
душно
1011.0 978.7
06 15.06 ЮЗ 1 15 км 9/0
[Ci sp]
+24.1 +23.2 95 +32 +32 очень
душно
1012.0 979.6 +23.2 11
09 15.06 ЮЗ 3 15 км 9/1 600 м
[Sc Ac trans Ci sp]
+27.2 +22.0 73 +35 +39 очень
душно
1013.6 980.8
12 15.06 Ю 2 15 км 9/0
[Ci sp]
+31.0 +23.0 62 +41 +58 опасность
перегрева
1012.3 979.8
15 15.06 ЮЗ 2 15 км 9/1 600 м
[Cu Sc Ci sp]
+32.9 +22.5 54 +42 +51 опасность
перегрева
1010.4 978.1
18 15.06 ЮЗ 2 15 км 9/1 600 м
[Sc Ci sp]
+32.1 +23.6 61 +43 +43 опасность
перегрева
1011.0 978.5 +33.3
21 15.06 Ю 1 10 км 9/1 600 м
[Cu Sc Ci sp]
+29.4 +25.7 81 +44 +44 опасность
перегрева
1013.0 980.5
00 16.06 Ю 2 10 км 9/0
[Ci sp]
+28.0 +23.0 74 +37 +37 очень
душно
1013.8 981.4
03 16.06 Ю 1 10 км 9/0
[Ci sp]
+26.2 +23.0 83 +35 +35 очень
душно
1011.7 979.4
06 16.06 Ю 1 15 км 9/0
[Ci sp]
+25.1 +23.1 89 +34 +34 очень
душно
1012.3 979.9 +25.0
09 16.06 СВ 3 15 км 9/0
[Ci sp]
+28.6 +22.7 70 +38 +45 очень
душно
1013.3 980.9
12 16.06 З 2 15 км 9/1 600 м
[Cu Sc Ci sp]
+32.4 +22.7 57 +42 +58 опасность
перегрева
1012.7 980.4
15 16.06 Ю 2 15 км 9/1 600 м
[Cu Sc Ci sp]
+34.6 +22.9 51 +45 +54 опасность
перегрева
1010.6 978.5
18 16.06 ЮЗ 2 15 км 9/1 600 м
[Sc Ci sp]
+34.5 +23.9 54 +46 +46 опасность
перегрева
1010.1 977.9 +35.0
21 16.06 штиль 0 10 км 9/0
[Ac trans Ci sp]
+31.1 +27.5 81 +50 +50 опасность
перегрева
1012.1 979.8
00 17.06 Ю 1 10 км 9/0
[Ac trans Ci sp]
+28.8 +24.1 76 +40 +40 очень
душно
1012.4 980.2
03 17.06 Ю 2 10 км 9/0
[Ci sp]
+27.2 +24.1 83 +38 +38 очень
душно
1011.4 979.3
06 17.06 ЮЗ 3 15 км 9/0
[Ci sp]
+26.1 +23.8 87 +36 +36 очень
душно
1012.5 980.3 +25.7
09 17.06 Ю 1 15 км 9/9 600 м
[Cb cap]
+26.6 +23.6 84 +36 +38 очень
душно
1015.9 983.3
12 17.06 ЮЗ 2 15 км гроза без осадков 9/1 600 м
[Cb cap Ac As]
+25.4 +21.9 81 +33 +40 очень
душно
1012.9 980.3 12
15 17.06 З 1 15 км {гроза} 9/1 600 м
[Sc Ac trans Ci sp]
+27.6 +23.2 77 +37 +44 очень
душно
1011.1 978.6
18 17.06 ЮЗ 1 15 км {гроза} 9/0
[Ci sp]
+29.0 +22.8 69 +38 +39 очень
душно
1010.9 978.4 +29.0 12
21 17.06 штиль 0 10 км 9/0
[Ci sp]
+26.3 +24.2 88 +37 +37 очень
душно
1013.2 980.5
00 18.06 З 1 10 км 9/0
[Ci sp]
+25.4 +24.0 92 +35 +35 очень
душно
1014.1 981.3
03 18.06 штиль 0 10 км 9/0
[Ci sp]
+24.5 +23.2 92 +33 +33 очень
душно
1012.8 980.1
06 18.06 штиль 0 15 км 9/0
[Ac trans Ci sp]
+24.0 +22.8 93 +32 +32 очень
душно
1013.3 980.6 +23.6 12

 

Местоположение метеостанции Гауа (Буркина-Фасо): широта 10.33 долгота -3.18 высота над уровнем моря 335 м.

В архиве по умолчанию представлена погода в Гауа за последнюю неделю. Архивные данные за месяц целиком и за предыдущие месяцы, начиная с января 2011 года, Вы можете получить, выбрав интересующий диапазон дат из раскрывающегося списка и нажав кнопку "Ввод!".


*Определитесь, кто Вы:
робот инопланетянин человек

Внимание! Время в таблицах - всемирное. Для получения местного времени необходимо прибавить поправку, которая равна 0 ч.

Смотрите также архив погоды в соседних городах и на ближайших метеорологических станциях:

Погода в Ва (Гана) (81 км)
Погода в Бобо-Диуласо (Буркина-Фасо) (156 км)
Погода в Боромо (Буркина-Фасо) (160 км)
Погода в Боле (Гана) (164 км)
Погода в Навронго (Гана) (236 км)
Погода в По (Буркина-Фасо) (240 км)
Погода в Дедугу (Буркина-Фасо) (240 км)
Погода в Бондуку (Кот-д'Ивуар) (257 км)
Погода в Тамале (Гана) (271 км)
Погода в Корого (Кот-д'Ивуар) (286 км)

Пояснения к столбцам:

Ветер - указаны скорость ветра в м/с - средняя за 10 мин, порывы в срок и между сроками (в фигурных скобках) и направление, откуда дует ветер: С - северный, СВ - северо-восточный, В - восточный, ЮВ - юго-восточный, Ю - южный, ЮЗ - юго-западный, З - западный, СЗ - северо-западный.
Видимость - горизонтальная дальность видимости в метрах или километрах. При видимости от 1 до 10 км при отсутствии осадков обычно наблюдается дымка, при ухудшении видимости до 1 км и менее - туман. В сухую погоду видимость может ухудшаться дымом, пылью или мглою.
Явления - указаны атмосферные явления, наблюдавшиеся в срок или в последний час перед сроком; фигурными скобками обозначены явления, наблюдавшиеся между сроками (за 1-3 часа до срока); квадратными скобками обозначены град или гололедные отложения с указанием их диаметра в мм.
Облачность - указаны через наклонную черту общая и нижняя облачность в баллах и высота нижней границы облаков в метрах; квадратными скобками обозначены формы облаков: Ci - перистые, Cs - перисто-слоистые, Cc - перисто-кучевые, Ac - высококучевые, As - высокослоистые, Sc - слоисто-кучевые, Ns - слоисто-дождевые, Cu - кучевые, Cb - кучево-дождевые. Подробнее классификацию облаков см. в Атласе облаков (PDF).
T - Температура воздуха - температура, измеренная на высоте 2 м над землей.
Td - Температура точки росы - температура, при понижении до которой содержащийся в воздухе водяной пар достигнет насыщения.
f - Относительная влажность воздуха - влажноcть воздуха, измеренная на высоте 2 м над землей.
Te - Эффективная температура - температура, которую ощущает одетый по сезону человек в тени. Характеристика душности погоды. При расчете учитывается влияние влажности воздуха и скорости ветра на теплоощущения человека.
Tes - Эффективная температура на солнце - температура, которую ощущает человек, с поправкой на солнечный нагрев. Характеристика знойности погоды. Зависит от высоты солнца над горизонтом, облачности и скорости ветра. Ночью, в пасмурную погоду, а также при ветре 12 м/с и более поправка равна нулю.
P - Атмосферное давление - приведенное к уровню моря атмосферное давление.
Po - Атмосферное давление - измеренное на уровне метеостанции атмосферное давление.
Tmin - Минимальная температура - минимум температуры воздуха на высоте 2 м над землей.
Tmax - Максимальная температура - максимум температуры воздуха на высоте 2 м над землей.
R - Количество осадков - Количество выпавших осадков за период времени, мм. При наведении курсора мыши на число - период времени, за который выпало указанное количество осадков.
R24 - Количество осадков - Количество выпавших осадков за 24 часа, мм.
S - Снежный покров - Высота снежного покрова, см. При наведении курсора мыши на число - состояние снежного покрова и степень покрытия местности в баллах.